Terminal Aerodrome Forecast
Issued by NWS

Home | Current Version | Previous Version | Text Only | Print | Product List | Glossary On
Versions: 1 2 3 4 5 6 7 8 9 10 11 12 13 14 15 16 17 18 19 20 21 22
000
FTUS43 KMQT 210600 AAA
TAFIWD
TAF AMD
KIWD 210600Z 2106/2206 30004KT P6SM -SHRA OVC005
     FM210800 02005KT P6SM OVC008
     FM211400 01008KT P6SM OVC015
     FM211800 35008KT P6SM SCT030
     FM220000 00000KT P6SM SKC
      AMD LTD TO CLD VIS AND WIND=

USA.gov is the U.S. government's official web portal to all federal, state and local government web resources and services.